Location: ??????
(56.0120°N, 39.1740°E)
Time: 21:32:46
(UTC+00:00)

Cosmos 1544 Rocket - Pass Details

Date: 14 April 2026
Orbit: 597 x 624 km, 82.5° (Epoch: 16 May)

Event Time Altitude Azimuth Distance (km) Brightness Sun altitude
Exits shadow 22:20:01 60° 122° (ESE) 718 3.7 -23.3°
Maximum altitude 22:20:22 63° 97° (E) 703 3.7 -23.3°
Drops below altitude 10° 22:24:45 10° 17° (NNE) 2,004 7.3 -23.1°
Sets 22:27:00 0° 15° (NNE) 2,912 8.5 -23.0°
